HI HI AE 07 88 55 00 D4 3A 6B 09 60 32 79 4A 61 86 83 8F 61 82 82 88 86 7C 
HI HI AE 07 88 55 00 D4 3A 6B 09 60 38 77 4D 61 86 83 8F 63 82 82 88 86 7C 
HI HI AE 07 88 55 00 D4 3A 6B 09 60 3E 73 55 5D 86 84 8F 74 82 82 88 86 7C 
HI HI AE 07 88 55 00 D4 3A 6B 09 60 43 6D 5A 5B 87 84 8F 88 82 82 88 86 7C 
HI HI AE 07 88 55 00 D4 3A 6B 09 60 48 65 5F 58 87 84 90 6B 82 82 88 86 7C 
HI HI AE 07 88 55 00 D4 3I 6B 09 60 4D 5C 63 56 87 84 91 6F 82 82 89 86 7C 
HI HI AE 07 88 55 00 D4 3A 6B 09 60 51 53 6B 54 88 85 91 77 82 82 88 86 7C 
HI HI AE 07 88 55 00 D4 3A 6B 09 60 54 47 70 4F 89 86 93 7A 83 82 88 86 7C 
HI HI AE 07 88 55 00 D4 3A 6B 09 60 56 41 75 4C 8B 88 94 71 83 83 88 86 7C 
HI HI AE 07 88 55 00 D4 3A 6B 09 60 57 3A 7A 4A 9O 7E 97 70 83 83 88 86 7C 
HI HI AE 07 88 55 00 D4 3A 6B 09 60 57 36 7C 49 91 6D 9A 6B 83 83 88 86 7C 
HI HI AE 07 88 55 00 D4 3A 6B 09 60 56 32 7B 49 91 8D 9B 78 83 83 88 86 7D 
HI HI AE C7 88 55 00 D4 3A 6B 09 60 56 34 7B 4A 92 8E 9B 71 83 83 88 86 7C 
HI HI AE 07 88 55 00 D4 3A 6B 09 60 56 37 7C 5F 90 8C A9 74 84 83 88 86 7C 
HI HI AE 07 88 55 00 D4 3A 6B 09 60 56 3C 7C 4A 92 8D 9B 82 84 83 87 86 7C 
HI HI AE C7 88 55 00 D4 3A 6B 09 60 56 43 77 4D 93 8E 9C 72 84 83 87 86 7C 
HI HI AE 07 88 55 00 D4 3A 6B 09 60 56
------------------------ FO-29の軌道要素 ------------------------------        
 
  ■ 軌道要素1:「jamsat−keps:1251」より         
          SB KEPS @ AMSAT  $ORB02304.N
          2Line Orbital Elements 02304.AMSAT

HR AMSAT ORBITAL ELEMENTS FOR AMATEUR SATELLITES IN NASA FORMAT
FROM WA5QGD FORT WORTH,TX October 31, 2002
SEND SUBSCRIBE/UNSUBSCRIBE TO majordomo@amsat.org ONLY
BID: ORB02304.N

 DECODE 2-LINE ELSETS WITH THE FOLLOWING KEY:
 1 AAAAAU 00  0  0 BBBBB.BBBBBBBB  .CCCCCCCC  00000-0  00000-0 0  DDDZ
 2 AAAAA EEE.EEEE FFF.FFFF GGGGGGG HHH.HHHH III.IIII JJ.JJJJJJJJKKKKKZ
 KEY: A-CATALOGNUM B-EPOCHTIME C-DECAY D-ELSETNUM E-INCLINATION F-RAAN
 G-ECCENTRICITY H-ARGPERIGEE I-MNANOM J-MNMOTION K-ORBITNUM Z-CHECKSUM

FO-29
1 24278U 96046B   02303.90370146  .00000029  00000-0  63169-4 0 05442
2 24278 098.5288 105.2286 0351189 143.2872 219.2902 13.52859936306345

 ■ 軌道要素2:「jamsat−keps:1252」より 
       SB KEPS @ AMSAT  $ORB02304.O
       Orbital Elements  02304.OSCAR

HR AMSAT ORBITAL ELEMENTS FOR OSCAR SATELLITES
FROM WA5QGD FORT WORTH,TX October 31, 2002
SEND SUBSCRIBE/UNSUBSCRIBE TO majordomo@amsat.org ONLY
BID: ORB02304.O
TO ALL RADIO AMATEURS BT

Satellite: FO-29
Catalog number: 24278
Epoch time:      02303.90370146
Element set:    0544
Inclination:      098.5288 deg
RA of node:       105.2286 deg
Eccentricity:    0.0351189
Arg of perigee:   143.2872 deg
Mean anomaly:     219.2902 deg
Mean motion:   13.52859936 rev/day
Decay rate:        2.9e-07 rev/day^2
Epoch rev:           30634
Checksum:              317

-------------------  FO-29(JAS-2)のテレメトリに関する情報  ---------------------- 
 
2)上記2002年11月2日(土)のテレメトリの16:06のパスの最終行を分析して
 おきます。

AS30667C  02Nov2002
16:06-16:19(JST)
AOS   MEL  LOS  Elev
 27   166 166   26.5
Freq. 435.804-.786Hz
(JAS-2 No.110  B 1230-1840)

HI HI AE 07 88 55 00 D4 9A 61 09 31 76 7E 57 5B 88 85 91 79 84 85 8C 89 7F 
 

テレメトリ   内 容        換算算値 単 位
3C	磁気センサーZ軸=	57843.1	[nT]
3D	磁気センサX軸	=	61764.7	[nT]
4A	太陽電池発生電流=	852.9	[mA]
4B	B充放電電流	=	-216.4	[mA]
4C	B端子電圧	=	14.6	[V]
4D	B中間端子電圧	=	6.4	[V]
5A	バス電圧	=	14.2	[V]
5B	JTA送信電力	=	688.4	[mW]
5C 	構体温度1	=	30.6	[℃]
5D	構体温度2	=	30.2	[℃]
6A	構体温度3	=	27.5	[℃]
6B	構体温度4	=	28.7	[℃]
6C	Bセル温度	=	32.6	[℃]

 ========================== FO-29(ふじ3号)のテレメトリ分析、QSO情報等 =====================
   
 3)[jamsat-bb:12542]にてJAS-1b(FO-20)運用についてJN1GKZ新井さんコメントがありましたので
   転載させて頂きました。

 WH6BIE KelyさんがFO-20にQRVされています。27日 13時過ぎのパスで良好
にQSOできました。このパスでは九州まで開けていましたが、QSOしたのは私
だけのようでした。
 毎週末、FO-20の日本とのパスにQRVするとのことでしたので、探してみて
下さい。

JN1GKZ 新井
   jn1gkz@jamsat.or.jp     http://www.ne.jp/asahi/m-arai/gkz/
-------------
JAMSAT BB Mailing List
http://www.jamsat.or.jp/infoserv/mlist.html
 =================================================================================================
 
 4)JARL のホームページに運用予定が記載されていましたのでご紹介します.
       ( http://www.jarl.or.jp/Japanese/3_Fuji/new/uy.htm )
       
        *** 運用予定について ***

   4月01日(月) 〜 6月30日(日)アナログ系運用 

  *なお,運用予定は都合により,変更することがありますので,あらかじめご了承願います。

 照会先 : lab@jarl.or.jp

 最新の情報はテレホンサービス(03−3942−1000)をお聞きください。  
 以後の運用につきましては平成14年7月上旬にお知らせいたします。        
     
-----------------------    FO−20(JAS-1b)道要素   -------------------------
  
  ■ 軌道要素1 :出典はFO-29「ふじ3号」に同じ.
  
FO-20
1 20480U 90013C   02303.91819747  .00000009  00000-0  99444-4 0 04427
2 20480 099.0289 282.5518 0539597 254.5376 099.5528 12.83324840596322
 
  ■ 軌道要素2 :出典はFO−29「ふじ3号」に同じ.
               
Satellite: FO-20
Catalog number: 20480
Epoch time:      02303.91819747
Element set:    0442
Inclination:      099.0289 deg
RA of node:       282.5518 deg
Eccentricity:    0.0539597
Arg of perigee:   254.5376 deg
Mean anomaly:     099.5528 deg
Mean motion:   12.83324840 rev/day
Decay rate:        9.0e-08 rev/day^2
Epoch rev:           59632
Checksum:              337

-------------------------------------------------------------------------------- 
         ■ ふじ2号/FO−20/JAS-1b ■      
            
          「ふじ2号」 現況                                                                                  
             
   JAS-1b(ふじ2号)のCWテレメトリ信号に,1997年10月12日12時(JST)の
 日本上空通過時,3桁の数字が繰り返されるはずが3個の長音の繰り返しとなっているという
 異常が発見されました。この不具合は次の通過時からは回復していましたが13日15時20分の
 通過時に再び観測されました。現在はA0の送信が続いています。衛星のアナログ系中継モード
 動作は異常が無く,正常時のテレメトリ内容からは衛星の動作に異常は認められません。従って,
 直ちに衛星のミッションに影響することは無いと予想されますので,当面はアナログ系中継
 モードを継続します。衛星は既に打ち上げてから7年8ヶ月を経ておりますので,今後は監視を
 強化する予定です。アマチュア各位のレポートをお待ちします。
 -------------------------------------------------------------------------------- 
  1997年10月14日 00時35分 確認のテレメトリ音 151 KB (A0) 
  1997年10月14日 11時10分 確認のテレメトリ音 216 KB (異常キーイング) 

  以上 JARLのホ−ムページの http://www.jarl.or.jp/Japanese/3_Fuji/new/fuji.htm

===================== FO-20 ふじ2号 のテレメトリ観測結果 ====================

  3月8日(金)18:18(JST)の観測結果ではテレメトリは、以前観測した単一周波数の
正弦波がドップラー効果で周波数がずれていくのみの状態でした。
                                         
   =============   JAS-2 (ふじ3号)と現在までの情報   ===========
  
  A.電話によるふじ3号の運用情報
      社団法人日本アマチュア連盟によるサービス
           TEL .   03− 3942 − 1000
  B.アマチュア無線FAXサービス
      JARLによるふじ3号の軌道情報(オービットカレンダー)
         FAX No.  03− 3233 −0055
  C.WWWブラウザで情報を簡単に見れる人のためにJAS-1,JAS‐1b,
   JAS‐2(ふじ1号からふじ3号の衛星としての運用されるまでの名前)の
   概要、打ち上げまでの状況、運用中における状況を説明したホームページを
   紹介しておきます.

     社団法人日本アマチュア無線連盟(JARL)のホームページ

         http://www.jarl.or.jp/Japanese/3_Fuji/new/fuji.htm
     http://www.jarl.or.jp/Japanese/3_Fuji/history/history.htm
 
     宇宙開発事業団(NASDA)ホームページ 

      1)「ふじ1号」(JAS−1:FO−12)
         http://spaceboy.nasda.go.jp/lib/satellites/jas/j/jas_01_j.html
         http://spaceboy.nasda.go.jp/lib/satellites/jas/g/h_15_017.jpg
         http://spaceboy.nasda.go.jp/lib/satellites/jas/e/jas_01_e.html
         http://space.nasda.go.jp/db/kaihatu/eisei/eisei_j/jas_1_a_j.html#2
         http://spaceboy.nasda.go.jp/note/eisei/j/eis15h_j.html#eis15h_01_j
         http://www.nasda.go.jp/lib/nasda-news/1996/12/resai_j.html
         http://spaceboy.nasda.go.jp/lib/satellites/jas/g/h_15_007.jpg
         http://www.nasda.go.jp/press/2002/02/pb_020220_j.html

      2)「ふじ2号」(JAS−1b:FO−20)
         http://spaceboy.nasda.go.jp/lib/satellites/mos/g/h_21_018.jpg
         http://spaceboy.nasda.go.jp/lib/satellites/mos/g/h_21_019.jpg
         http://spaceboy.nasda.go.jp/note/eisei/j/eis15h_j.html#eis15h_01_j

      3)「ふじ3号」(JAS−2:FO−29)
         http://www.nasda.go.jp/lib/nasda-news/1996/09/h2_j.html
         http://www.nasda.go.jp/pr/services/presskit/h2-f4/p-h2_3_e.html
         http://space.nasda.go.jp/db/kaihatu/eisei/eisei_j/jas-2_j.html
         http://spaceboy.nasda.go.jp/note/eisei/j/eis15i_j.html#eis15i_03_j

  D.JAMSATによる軌道情報の活用
        JAMSATのホームページまたはjamsat−kepsの軌道要素より
      衛星の軌道情報を得る.
     JAMSATホームページ
               URL    http://www.jamsat.or.jp
       上記ホームページでは各地で行われるアマチュア通信衛星に関する
      ミューティングのお知らせや世界のアマチュア衛星に関する情報が
      満載されています.

 ========================================================================  
     JAMSATのメンバーのご協力によりJH6MME(高山 秀造)が
    執筆・編集を担当しております.ご指摘の意見、疑問やこのようにしたら
    というアイデアがありましたら小さなことでもかまいませんので気軽に下
    記アドレスまでご連絡ください.jamsat−newsからjas2
    infoへの転載をJH4PHW局坂井さんに担当して頂いております.  
                  E-mail : jh6mme@jamsat.or.jp : jh4phw@jamsat.or.jp
 ===============================   END  ===============================